Zurück zum Katalog

STARLINK-32891

AktivKommunikationVLEO
NORAD 62927·PAYLOAD·🇺🇸 United States

Gestartet Feb 8, 2025 von Cape Canaveral Space Force Station

Loading…

Nächste Überflüge (nächste 24 Stunden)

TLE

AktuellSource: CelesTrak SupGP

Epoche: Sep 14, 2026, 14:04 UTC

1 62927C 25027W   26257.58659722  .00036439  00000+0  13194-2 0  2579
2 62927  43.0006 142.3204 0001639 260.4296 286.3405 15.27570557    18

Verfolge STARLINK-32891 in Echtzeit mit AllMySat

Download on the App Store